www.pogodaiklimat.ru

Погода и климат >> Архив погоды >> Доминиканская Республика >> Barahona


ПОГОДА в Barahona

  • Прогноз погоды в Barahona
  • Монитор погоды в Barahona
  • Климат города

АРХИВ ПОГОДЫ в Barahona

Время (UTC), дата Ветер
(напр.,м/с)
 
Видим.   Явления Облачность Т
(С)
Тd
(С)
f
(%)
Тe
(С)
Тes
(С)
Комфортность P
(гПа)
Po
(гПа)
Тmin
(С)
Tmax
(С)
R
(мм)
R24
(мм)
S
(см)
12 8.08 штиль 0 12 км пыль 6/1 480 м
[Cu Sc Cs]
+25.4 +23.2 88 +34 +38 очень
душно
1018.8 1019.0 +25.0 +33.6
15 8.08 ЮВ 5 12 км пыль {туман} 5/3 700 м
[Cu med, cong Cs]
+31.7 +23.2 61 +42 +49 опасность
перегрева
1019.7 1020.0
18 8.08 ЮВ 9 12 км пыль {туман} 6/3 700 м
[Cb cap Cs]
+32.8 +24.6 62 +46 +47 опасность
перегрева
1018.4 1018.0 +25.0 +33.6
00 9.08 ЮВ 5 12 км пыль {туман} 8/5 600 м
[Cb cap Ac trans Cs]
+28.7 +24.3 77 +40 +40 очень
душно
1017.6 1018.0 +25.0 +33.6
12 9.08 ЮВ 3 12 км пыль 6/1 630 м
[Cu med, cong Ac trans Cs]
+28.4 +23.0 73 +38 +40 очень
душно
1018.4 1018.0 +27.0 +33.6
15 9.08 ЮВ 7 14 км пыль {туман} 6/1 800 м
[Sc Cs]
+32.4 +21.6 53 +41 +45 опасность
перегрева
1019.8 1020.0
18 9.08 Ю 7 14 км пыль {туман} 8/1 840 м
[Sc Cs]
+32.4 +22.6 56 +42 +46 опасность
перегрева
1018.2 1018.0 +27.0 +33.4
21 9.08 В 6 14 км пыль {туман} 9/3 660 м
[Cb cap Ac As]
+29.6 +23.4 69 +40 +41 очень
душно
1016.4 1016.0
00 10.08 Ю 3 16 км {туман} 9/4 480 м
[Cb cap Ac As]
+28.0 +24.2 80 +39 +39 очень
душно
1017.4 1017.0 +27.0 +33.6
12 10.08 Ю 3 14 км пыль 8/3 480 м
[Cb cap Ci fib]
+26.8 +23.3 81 +36 +38 очень
душно
1018.2 1018.0 +24.6 +33.6
15 10.08 Ю 4 14 км пыль {туман} 8/3 660 м
[Cb cap Ci fib]
+31.6 +22.0 57 +40 +48 очень
душно
1018.8 1019.0
18 10.08 Ю 8 16 км {туман} 9/3 660 м
[Cb cap Ac As Ci fib]
+32.5 +21.9 54 +41 +43 опасность
перегрева
1017.3 1017.0 +24.6 +32.8
00 11.08 Ю 3 16 км 8/8 480 м
[Cb cap]
+27.8 +23.5 77 +38 +38 очень
душно
1017.2 1017.0 +24.6 +33.2
12 11.08 штиль 0 14 км пыль 8/3 480 м
[Cb cap Cs]
+25.6 +22.6 84 +34 +36 очень
душно
1018.4 1018.0 +24.8 +33.2
15 11.08 ЮВ 5 14 км пыль {туман} 3/3 660 м
[Cb cap Ci fib]
+31.6 +21.6 55 +40 +46 очень
душно
1020.0 1020.0
18 11.08 ЮВ 7 14 км пыль {туман} 5/5 660 м
[Cb cap Ci fib]
+32.4 +24.4 63 +45 +48 опасность
перегрева
1018.4 1018.0 +24.8 +33.6
21 11.08 ЮВ 9 14 км пыль {туман} 5/5 660 м
[Cb cap Ci fib]
+31.4 +24.5 67 +44 +44 опасность
перегрева
1016.5 1017.0
00 12.08 ЮВ 6 16 км {туман} 6/4 480 м
[Cb cap Ac trans Ci fib]
+28.4 +24.7 80 +40 +40 очень
душно
1017.4 1017.0 +24.8 +33.6
15 12.08 ЮВ 6 14 км пыль {туман} 5/5 660 м
[Cb cap Ci fib]
+32.6 +22.7 56 +42 +46 опасность
перегрева
1002.0 1002.0
18 12.08 ЮВ 8 14 км пыль {туман} 8/6 600 м
[Cb cap Ci fib]
+32.0 +23.4 60 +43 +44 опасность
перегрева
1018.4 1018.0 +25.2 +33.6
21 12.08 ЮВ 7 14 км гроза без осадков {туман} 6/6 630 м
[Cb cap Ac trans Ci fib]
+31.6 +22.9 60 +42 +42 опасность
перегрева
1017.4 1017.0
00 13.08 ЮВ 7 14 км гроза без осадков {туман} 6/6 630 м
[Cb cap Ac trans Ci fib]
+31.6 +22.9 60 +42 +42 опасность
перегрева
1017.4 1017.0
12 13.08 З 3 14 км пыль {туман} 3/3 480 м
[Cb cap Ci fib]
+24.7 +22.0 85 +32 +34 очень
душно
1018.0 1018.0 +23.2 +33.6
15 13.08 В 4 16 км {туман} 3/3 750 м
[Cu med, cong Ci fib]
+32.0 +21.8 55 +41 +49 опасность
перегрева
1018.8 1019.0
18 13.08 ЮВ 6 16 км {туман} 3/3 840 м
[Cu med, cong]
+35.2 +21.3 44 +42 +48 опасность
перегрева
1016.4 1016.0 +23.2 +35.6
21 13.08 ЮВ 8 12 км пыль 5/4 660 м
[Sc Ac trans Cs]
+32.0 +24.3 64 +44 +45 опасность
перегрева
1014.8 1015.0
00 14.08 ЮВ 5 12 км пыль {туман} 6/4 480 м
[Cb cap Ac und Cs]
+28.6 +23.8 75 +39 +39 очень
душно
1015.3 1015.0 +23.2 +35.6
12 14.08 штиль 0 14 км пыль 4/1 600 м
[Cu med, cong Ci fib]
+26.6 +23.0 81 +36 +39 очень
душно
1016.7 1017.0 +24.5 +35.6
15 14.08 ЮВ 3 14 км пыль {туман} 3/3 800 м
[Cu med, cong Ci fib]
+32.0 +21.6 54 +40 +51 опасность
солнечного
удара
1017.1 1017.0
18 14.08 В 7 16 км {туман} 5/4 720 м
[Sc Ac trans Cs]
+33.4 +22.5 53 +43 +46 опасность
перегрева
1016.7 1017.0 +24.5 +35.5
21 14.08 ЮВ 5 16 км 6/5 540 м
[Cb cap Ac trans Cs]
+32.2 +22.4 56 +41 +43 опасность
перегрева
1015.3 1015.0
00 15.08 Ю 5 16 км 6/5 540 м
[Cb cap Ac trans Cs]
+29.0 +23.3 71 +39 +39 очень
душно
1015.4 1015.0 +24.5 +35.5

 

Местоположение метеостанции Barahona (Доминиканская Республика): широта 18.20 долгота -71.10 высота над уровнем моря 3 м.

В архиве по умолчанию представлена погода в Barahona за последнюю неделю. Архивные данные за месяц целиком и за предыдущие месяцы, начиная с января 2011 года, Вы можете получить, выбрав интересующий диапазон дат из раскрывающегося списка и нажав кнопку "Ввод!".


*Определитесь, кто Вы:
робот инопланетянин человек

Внимание! Время в таблицах - всемирное. Для получения местного времени необходимо прибавить поправку, которая в Barahona равна -4 ч.

Смотрите также архив погоды в соседних городах и на ближайших метеорологических станциях:

Погода в Santo Domingo (Доминиканская Республика) (131 км)
Погода в Santiago (Доминиканская Республика) (145 км)
Погода в Las Americas (Доминиканская Республика) (154 км)
Погода в Puerto Plata (Доминиканская Республика) (182 км)
Погода в Sabana De La Mar (Доминиканская Республика) (204 км)
Погода в La Romana Int Airport (Доминиканская Республика) (232 км)
Погода в Punta Cana (Доминиканская Республика) (292 км)
Погода в Punta de Maisi (Куба) (393 км)
Погода в Santiago de Cuba (Куба) (537 км)
Погода в Punta Lucrecia (Куба) (570 км)

Пояснения к столбцам:

Ветер - указаны скорость ветра в м/с - средняя за 10 мин, порывы в срок и между сроками (в фигурных скобках) и направление, откуда дует ветер: С - северный, СВ - северо-восточный, В - восточный, ЮВ - юго-восточный, Ю - южный, ЮЗ - юго-западный, З - западный, СЗ - северо-западный.
Видимость - горизонтальная дальность видимости в метрах или километрах. При видимости от 1 до 10 км при отсутствии осадков обычно наблюдается дымка, при ухудшении видимости до 1 км и менее - туман. В сухую погоду видимость может ухудшаться дымом, пылью или мглою.
Явления - указаны атмосферные явления, наблюдавшиеся в срок или в последний час перед сроком; фигурными скобками обозначены явления, наблюдавшиеся между сроками (за 1-3 часа до срока); квадратными скобками обозначены град или гололедные отложения с указанием их диаметра в мм.
Облачность - указаны через наклонную черту общая и нижняя облачность в баллах и высота нижней границы облаков в метрах; квадратными скобками обозначены формы облаков: Ci - перистые, Cs - перисто-слоистые, Cc - перисто-кучевые, Ac - высококучевые, As - высокослоистые, Sc - слоисто-кучевые, Ns - слоисто-дождевые, Cu - кучевые, Cb - кучево-дождевые. Подробнее классификацию облаков см. в Атласе облаков (PDF).
T - Температура воздуха - температура, измеренная на высоте 2 м над землей.
Td - Температура точки росы - температура, при понижении до которой содержащийся в воздухе водяной пар достигнет насыщения.
f - Относительная влажность воздуха - влажноcть воздуха, измеренная на высоте 2 м над землей.
Te - Эффективная температура - температура, которую ощущает одетый по сезону человек в тени. Характеристика душности погоды. При расчете учитывается влияние влажности воздуха и скорости ветра на теплоощущения человека.
Tes - Эффективная температура на солнце - температура, которую ощущает человек, с поправкой на солнечный нагрев. Характеристика знойности погоды. Зависит от высоты солнца над горизонтом, облачности и скорости ветра. Ночью, в пасмурную погоду, а также при ветре 12 м/с и более поправка равна нулю.
P - Атмосферное давление - приведенное к уровню моря атмосферное давление.
Po - Атмосферное давление - измеренное на уровне метеостанции атмосферное давление.
Tmin - Минимальная температура - минимум температуры воздуха на высоте 2 м над землей.
Tmax - Максимальная температура - максимум температуры воздуха на высоте 2 м над землей.
R - Количество осадков - Количество выпавших осадков за период времени, мм. При наведении курсора мыши на число - период времени, за который выпало указанное количество осадков.
R24 - Количество осадков - Количество выпавших осадков за 24 часа, мм.
S - Снежный покров - Высота снежного покрова, см. При наведении курсора мыши на число - состояние снежного покрова и степень покрытия местности в баллах.